When you browse on this site, cookies collect data to enhance your experience and personalize the content and advertising you see.
Visit our Privacy Policy to learn more. By continuing to use the site, you agree to this use of cookies and data.
  • In United Kingdom
  • List of Countries
  • For 7 days
  • Water Temperature
  • Weather Map
  • Weather Widgets
  • user-avatar
    Login

    Hourly Weather Fetesti

    Today, 10 December, Tuesday

    Time Temperature Precipitation Wind Pressure Humidity
    00:00 +4°C° 0 mm 3 mps 754 mmHg 82%
    01:00 +4°C° 0 mm 3 mps 754 mmHg 84%
    02:00 +4°C° 0 mm 3 mps 754 mmHg 85%
    03:00 +4°C° 0 mm 3 mps 754 mmHg 86%
    04:00 +4°C° 0 mm 3 mps 754 mmHg 86%
    05:00 +4°C° 0 mm 3 mps 754 mmHg 87%
    06:00 +4°C° 0 mm 3 mps 754 mmHg 87%
    07:00 +4°C° 0 mm 3 mps 754 mmHg 87%
    08:00 +4°C° 0 mm 3 mps 754 mmHg 88%
    09:00 +7°C° 0 mm 3 mps 755 mmHg 81%
    10:00 +9°C° 0 mm 3 mps 755 mmHg 74%
    11:00 +10°C° 0 mm 4 mps 755 mmHg 68%
    12:00 +11°C° 0 mm 3 mps 755 mmHg 63%
    13:00 +12°C° 0 mm 3 mps 755 mmHg 58%
    14:00 +13°C° 0 mm 3 mps 755 mmHg 52%
    15:00 +12°C° 0 mm 2 mps 755 mmHg 59%
    16:00 +10°C° 0 mm 2 mps 755 mmHg 65%
    17:00 +9°C° 0 mm 2 mps 755 mmHg 71%
    18:00 +9°C° 0 mm 2 mps 755 mmHg 76%
    19:00 +8°C° 0 mm 2 mps 756 mmHg 80%
    20:00 +9°C° 0 mm 1 mps 756 mmHg 85%
    21:00 +8°C° 0 mm 1 mps 756 mmHg 86%
    22:00 +8°C° 0 mm 1 mps 757 mmHg 87%
    23:00 +8°C° 0 mm 1 mps 757 mmHg 89%

    Tomorrow, 11 December, Wednesday

    Time Temperature Precipitation Wind Pressure Humidity
    00:00 +8°C° 0 mm 1 mps 757 mmHg 90%
    01:00 +6°C° 0 mm 2 mps 757 mmHg 91%
    02:00 +6°C° 0 mm 2 mps 757 mmHg 92%
    03:00 +6°C° 0 mm 2 mps 757 mmHg 92%
    04:00 +6°C° 0 mm 2 mps 757 mmHg 92%
    05:00 +5°C° 0 mm 3 mps 757 mmHg 93%
    06:00 +5°C° 0 mm 3 mps 757 mmHg 93%
    07:00 +5°C° 0 mm 3 mps 757 mmHg 93%
    08:00 +4°C° 0 mm 3 mps 758 mmHg 94%
    09:00 +7°C° 0 mm 3 mps 758 mmHg 89%
    10:00 +8°C° 0 mm 3 mps 758 mmHg 85%
    11:00 +9°C° 0 mm 3 mps 758 mmHg 80%
    12:00 +10°C° 0.1 mm 4 mps 757 mmHg 75%
    13:00 +11°C° 0.1 mm 4 mps 757 mmHg 71%
    14:00 +11°C° 0.1 mm 4 mps 757 mmHg 66%
    15:00 +11°C° 0.1 mm 4 mps 756 mmHg 70%
    16:00 +10°C° 0.1 mm 3 mps 756 mmHg 75%
    17:00 +9°C° 0.1 mm 3 mps 756 mmHg 79%
    18:00 +9°C° 0.1 mm 3 mps 756 mmHg 81%
    19:00 +8°C° 0.1 mm 3 mps 756 mmHg 83%
    20:00 +8°C° 0.1 mm 3 mps 756 mmHg 85%
    21:00 +8°C° 0 mm 3 mps 756 mmHg 86%
    22:00 +8°C° 0 mm 3 mps 756 mmHg 86%
    23:00 +8°C° 0 mm 3 mps 756 mmHg 87%

    Day after tomorrow, 12 December, Thursday

    Time Temperature Precipitation Wind Pressure Humidity
    00:00 +8°C° 0.1 mm 3 mps 755 mmHg 88%
    01:00 +8°C° 0.1 mm 3 mps 755 mmHg 89%
    02:00 +8°C° 0.1 mm 3 mps 755 mmHg 90%
    03:00 +8°C° 0 mm 3 mps 754 mmHg 89%
    04:00 +8°C° 0 mm 3 mps 754 mmHg 89%
    05:00 +8°C° 0 mm 3 mps 754 mmHg 88%
    06:00 +8°C° 0 mm 3 mps 754 mmHg 88%
    07:00 +8°C° 0 mm 3 mps 754 mmHg 88%
    08:00 +8°C° 0 mm 3 mps 754 mmHg 88%
    09:00 +8°C° 0 mm 4 mps 754 mmHg 83%
    10:00 +10°C° 0 mm 4 mps 753 mmHg 78%
    11:00 +11°C° 0 mm 4 mps 753 mmHg 73%
    12:00 +11°C° 0 mm 4 mps 753 mmHg 72%
    13:00 +11°C° 0 mm 4 mps 753 mmHg 71%
    14:00 +11°C° 0 mm 4 mps 752 mmHg 69%
    15:00 +11°C° 0 mm 4 mps 752 mmHg 73%
    16:00 +11°C° 0 mm 4 mps 752 mmHg 76%
    17:00 +10°C° 0 mm 4 mps 752 mmHg 79%
    18:00 +10°C° 0 mm 4 mps 752 mmHg 80%
    19:00 +10°C° 0 mm 4 mps 752 mmHg 81%
    20:00 +10°C° 0 mm 4 mps 752 mmHg 82%
    21:00 +8°C° 0 mm 4 mps 752 mmHg 83%
    22:00 +8°C° 0 mm 4 mps 752 mmHg 84%
    23:00 +8°C° 0 mm 4 mps 752 mmHg 85%

    13 December, Friday

    Time Temperature Precipitation Wind Pressure Humidity
    00:00 +7°C° 0 mm 4 mps 751 mmHg 85%
    01:00 +7°C° 0 mm 4 mps 751 mmHg 86%
    02:00 +7°C° 0 mm 4 mps 751 mmHg 87%
    03:00 +8°C° 0.1 mm 3 mps 750 mmHg 87%
    04:00 +8°C° 0.1 mm 3 mps 750 mmHg 87%
    05:00 +9°C° 0.1 mm 3 mps 749 mmHg 87%
    06:00 +9°C° 0.2 mm 3 mps 749 mmHg 88%
    07:00 +8°C° 0.2 mm 4 mps 749 mmHg 89%
    08:00 +8°C° 0.2 mm 4 mps 749 mmHg 90%
    09:00 +10°C° 0.2 mm 4 mps 749 mmHg 88%
    10:00 +10°C° 0.2 mm 4 mps 749 mmHg 85%
    11:00 +11°C° 0.2 mm 4 mps 748 mmHg 82%
    12:00 +12°C° 0.3 mm 4 mps 748 mmHg 78%
    13:00 +12°C° 0.3 mm 4 mps 747 mmHg 73%
    14:00 +13°C° 0.3 mm 4 mps 747 mmHg 69%
    15:00 +12°C° 0.3 mm 3 mps 747 mmHg 72%
    16:00 +11°C° 0.3 mm 3 mps 746 mmHg 76%
    17:00 +10°C° 0.3 mm 2 mps 746 mmHg 80%
    18:00 +10°C° 0.1 mm 2 mps 746 mmHg 82%
    19:00 +10°C° 0.1 mm 2 mps 746 mmHg 84%
    20:00 +9°C° 0.1 mm 2 mps 746 mmHg 86%
    21:00 +9°C° 0 mm 2 mps 746 mmHg 87%
    22:00 +8°C° 0 mm 2 mps 746 mmHg 88%
    23:00 +8°C° 0 mm 2 mps 746 mmHg 89%

    14 December, Saturday

    Time Temperature Precipitation Wind Pressure Humidity
    00:00 +8°C° 0 mm 2 mps 745 mmHg 90%
    01:00 +8°C° 0 mm 3 mps 745 mmHg 91%
    02:00 +7°C° 0 mm 3 mps 745 mmHg 91%
    03:00 +7°C° 0 mm 3 mps 745 mmHg 91%
    04:00 +7°C° 0 mm 3 mps 744 mmHg 91%
    05:00 +6°C° 0 mm 4 mps 744 mmHg 91%
    06:00 +6°C° 0 mm 4 mps 744 mmHg 90%
    07:00 +7°C° 0 mm 4 mps 744 mmHg 90%
    08:00 +7°C° 0 mm 4 mps 744 mmHg 89%
    09:00 +9°C° 0 mm 5 mps 744 mmHg 81%
    10:00 +10°C° 0 mm 6 mps 745 mmHg 73%
    11:00 +12°C° 0 mm 8 mps 745 mmHg 65%
    12:00 +14°C° 0 mm 7 mps 745 mmHg 62%
    13:00 +14°C° 0 mm 7 mps 745 mmHg 59%
    14:00 +15°C° 0 mm 6 mps 745 mmHg 57%
    15:00 +14°C° 0 mm 5 mps 745 mmHg 62%
    16:00 +13°C° 0 mm 4 mps 745 mmHg 68%
    17:00 +12°C° 0 mm 4 mps 746 mmHg 74%
    18:00 +11°C° 0 mm 3 mps 746 mmHg 78%
    19:00 +10°C° 0 mm 3 mps 747 mmHg 81%
    20:00 +10°C° 0 mm 3 mps 747 mmHg 85%
    21:00 +10°C° 0 mm 3 mps 748 mmHg 84%
    22:00 +9°C° 0 mm 3 mps 749 mmHg 84%
    23:00 +9°C° 0 mm 3 mps 749 mmHg 83%

    15 December, Sunday

    Time Temperature Precipitation Wind Pressure Humidity
    00:00 +9°C° 0 mm 3 mps 750 mmHg 83%
    01:00 +8°C° 0 mm 4 mps 751 mmHg 83%
    02:00 +7°C° 0 mm 4 mps 751 mmHg 83%
    03:00 +7°C° 0.1 mm 4 mps 752 mmHg 83%
    04:00 +7°C° 0.1 mm 4 mps 752 mmHg 83%
    05:00 +7°C° 0.1 mm 5 mps 753 mmHg 84%
    06:00 +7°C° 0 mm 5 mps 754 mmHg 84%
    07:00 +6°C° 0 mm 5 mps 755 mmHg 84%
    08:00 +6°C° 0 mm 5 mps 756 mmHg 85%
    09:00 +7°C° 0 mm 4 mps 756 mmHg 78%
    10:00 +7°C° 0 mm 4 mps 757 mmHg 72%
    11:00 +8°C° 0 mm 4 mps 758 mmHg 65%
    12:00 +9°C° 0 mm 5 mps 758 mmHg 61%
    13:00 +10°C° 0 mm 5 mps 758 mmHg 56%
    14:00 +12°C° 0 mm 5 mps 758 mmHg 51%
    15:00 +9°C° 0 mm 5 mps 759 mmHg 57%
    16:00 +8°C° 0 mm 4 mps 759 mmHg 63%
    17:00 +8°C° 0 mm 3 mps 760 mmHg 70%
    18:00 +8°C° 0 mm 3 mps 761 mmHg 70%
    19:00 +7°C° 0 mm 3 mps 761 mmHg 71%
    20:00 +7°C° 0 mm 3 mps 762 mmHg 72%
    21:00 +7°C° 0 mm 3 mps 762 mmHg 71%
    22:00 +6°C° 0 mm 2 mps 763 mmHg 70%
    23:00 +6°C° 0 mm 2 mps 763 mmHg 68%
    Show more